Location: Marse
(42.1502°N, 110.9866°W)
Time: 00:21:42
(UTC+00:00)

NANOSAT C BR1 - Visible Passes

Search period start: 28 June 2022 00:00
Search period end: 08 July 2022 00:00
Orbit: 583 x 601 km, 98.0° (Epoch: 27 June)

Date Brightness Start Highest point End Pass type
(mag) Time Alt. Az. Time Alt. Az. Time Alt. Az.
28 Jun ? 08:51:20 10° NE 08:54:59 28° E 08:56:18 24° SE visible
28 Jun ? 10:26:58 10° NNW 10:30:24 25° WNW 10:32:53 15° WSW visible
29 Jun ? 08:59:53 10° NNE 09:03:46 35° E 09:05:07 28° SE visible
29 Jun ? 10:35:56 10° NNW 10:39:04 21° WNW 10:41:42 12° WSW visible
30 Jun ? 09:08:29 10° NNE 09:12:32 43° E 09:13:56 32° SE visible
30 Jun ? 10:44:58 10° NNW 10:47:43 17° WNW 10:50:27 10° WSW visible
01 Jul ? 09:17:07 10° NNE 09:21:16 55° E 09:22:44 36° SSE visible
01 Jul ? 10:54:08 10° NNW 10:56:21 14° WNW 10:58:34 10° W visible
02 Jul ? 09:25:48 10° NNE 09:30:00 70° E 09:31:32 38° S visible
02 Jul ? 11:03:32 10° NW 11:04:59 12° WNW 11:06:24 10° W visible
03 Jul ? 09:34:30 10° NNE 09:38:44 87° E 09:40:19 38° S visible
04 Jul ? 09:43:13 10° N 09:47:26 75° WNW 09:49:07 36° SSW visible
05 Jul ? 08:18:39 10° ENE 08:20:14 12° E 08:21:19 11° ESE visible
05 Jul ? 09:51:58 10° N 09:56:08 60° WNW 09:57:55 32° SW visible
06 Jul ? 08:26:36 10° ENE 08:29:02 15° E 08:30:06 14° ESE visible
06 Jul ? 10:00:45 10° N 10:04:49 47° WNW 10:06:41 28° SW visible
07 Jul ? 08:34:51 10° NE 08:37:49 18° E 08:38:52 17° ESE visible
07 Jul ? 10:09:33 10° N 10:13:29 38° WNW 10:15:28 24° WSW visible
